Weather Roundup
Issued by NWS Chicago, IL

Home | Current Version | Previous Version | Graphics & Text | Print | Product List | Glossary On
Versions: 1 2 3 4 5 6 7 8 9 10 11 12 13 14 15 16 17 18 19 20 21 22 23 24 25 26 27 28 29 30 31 32 33 34 35 36 37 38 39 40 41 42 43 44 45 46 47 48 49 50
000
NZUS59 KLOT 272058
HRRLOT

CHICAGO AREA WEATHER ROUNDUP
NATIONAL WEATHER SERVICE CHICAGO/ROMEOVILLE IL
300 PM CST TUE JAN 27 2015

NOTE: "FAIR" INDICATES FEW OR NO CLOUDS BELOW 12,000 FEET WITH NO
SIGNIFICANT WEATHER AND/OR OBSTRUCTIONS TO VISIBILITY.

* THESE STATIONS ARE NOT UNDER NWS QUALITY CONTROL. THEY ALSO MAY NOT
  REPORT WEATHER SUCH AS PRECIPITATION OR FOG.

ILZ005-006-012>014-019>023-272200-
NORTHEAST ILLINOIS

CITY           SKY/WX    TMP DP  RH WIND       PRES   REMARKS
OHARE          MOSUNNY   30  17  58 NE10      30.19R WCI  21
MIDWAY         MOSUNNY   32  19  58 N10       30.20R WCI  24
AURORA         MOSUNNY   31  21  66 N6        30.19R WCI  25
WAUKEGAN       NOT AVBL
DUPAGE AIRPORT MOSUNNY   33  21  61 N8        30.18R WCI  26
WHEELING       SUNNY     29  16  58 NE7       30.21R WCI  22
NORTHERLY IS     N/A     28  17  63 N8          N/A  WCI  20
$$

WIZ051-052-058>065-066-070>072-272200-
SOUTHEAST WISCONSIN

CITY           SKY/WX    TMP DP  RH WIND       PRES   REMARKS
MILWAUKEE      PTSUNNY   29  16  58 NE9       30.22R WCI  20
KENOSHA*       SUNNY     30  16  56 NE9       30.20R WCI  22
RACINE*        MOSUNNY   28  17  63 N9        30.23R WCI  19
WAUKESHA       PTSUNNY   28  16  59 NE7       30.20R WCI  21
$$

INZ001>003-010>013-019-020-272200-
NORTHWEST INDIANA

CITY           SKY/WX    TMP DP  RH WIND       PRES   REMARKS
GARY*          MOSUNNY   32  16  51 NE10      30.20R WCI  24
MICHIGAN CITY* NOT AVBL
RENSSELAER*    NOT AVBL
$$

LMZ740>746-272200-
SOUTHERN LAKE MICHIGAN

STATION/POSITION TIME  SKY/WX   TEMP WIND        PRES    VSBY
                                AIR  DIR/SP/G
                 (UTC)          (F)  (DEG/KT/KT) (MB)    (MI)
HARRISON CRIB    2000            27   10/ 10/ 12   N/A
BURNHAM HARBOR   2000            28   20/  9/ 11   N/A
CALUMET HARBOR   2000            28  360/  7/ 11   N/A
BURNS HARBOR     NOT AVBL
MICHIGAN CITY    2000            27  350/ 10/ 12   N/A
$$

ABBREVIATIONS USED IN REMARKS
   TC - TEMPERATURE IN CELSIUS
  WCI - WIND CHILL INDEX
   HX - HEAT INDEX
  VSB - VISIBILITY
$$


USA.gov is the U.S. government's official web portal to all federal, state and local government web resources and services.